Change the Weather History Date:

Sunday, February 26, 2012

  Actual Average Record
Temperature  
Mean Temperature 33 °F 25 °F  
Max Temperature 46 °F 33 °F 57 °F (1976)
Min Temperature 20 °F 17 °F -20 °F (1963)
Degree Days  
Heating Degree Days 32 40  
Month to date heating degree days 969 1161  
Since 1 July heating degree days 4921 5772  
Cooling Degree Days 0 0  
Month to date cooling degree days 0 0  
Year to date cooling degree days 0 0  
Moisture  
Dew Point 20 °F    
Average Humidity 64    
Maximum Humidity 77    
Minimum Humidity 51    
Precipitation  
Precipitation 0.00 in 0.04 in 1.15 in (1999)
Month to date precipitation 0.13 0.90  
Year to date precipitation 1.03 1.72  
Snow  
Snow 0.00 in 0.20 in 10.00 in (1929)
Month to date snowfall 2.4 7.2  
Since 1 July snowfall 17.8 32.0  
Snow Depth 0.00 in    
Sea Level Pressure  
Sea Level Pressure 29.90 in    
Wind  
Wind Speed 24 mph (SW)    
Max Wind Speed 41 mph    
Max Gust Speed 53 mph    
Visibility 10 miles    
Events      
T = Trace of Precipitation, MM = Missing Value Source: NWS Daily Summary

Daily Weather History Graph

Daily Weather History Graph

Search for Another Location

Airport or City:

Trip Planner

Search our weather history database for the weather conditions in past years. The results will help you decide how hot, cold, wet, or windy it might be!

Date:

Astronomy

Feb. 26, 2012 Rise Set
Actual Time 6:55 AM CST 5:58 PM CST
Civil Twilight 6:26 AM CST 6:26 PM CST
Nautical Twilight 5:53 AM CST 6:59 PM CST
Astronomical Twilight 5:20 AM CST 7:32 PM CST
Moon 8:41 AM CST (2/26) 11:06 PM CST (2/26)
Length of Visible Light 12h 00m
Length of Day
11h 03m
Waxing Crescent, 21% of the Moon is Illuminated
Feb 26
Waxing Crescent
Feb 29
First Quarter
Mar 8
Full
Mar 14
Last Quarter
Mar 22
New

Hourly Weather History & Observations

Time (CST) Temp. Windchill Dew Point Humidity Pressure Visibility Wind Dir Wind Speed Gust Speed Precip Events Conditions
12:53 AM 21.0 °F 4.6 °F 15.1 °F 78% 30.01 in 10.0 mi SE 23.0 mph 29.9 mph N/A   Clear
1:53 AM 21.2 °F 4.5 °F 15.8 °F 80% 29.91 in 10.0 mi SE 24.2 mph 31.1 mph N/A   Clear
2:53 AM 23.0 °F 6.9 °F 15.1 °F 72% 29.89 in 10.0 mi SE 24.2 mph 32.2 mph N/A   Mostly Cloudy
3:53 AM 26.1 °F 10.1 °F 16.0 °F 66% 29.84 in 10.0 mi SSE 27.6 mph 40.3 mph N/A   Clear
4:53 AM 25.0 °F 10.2 °F 17.1 °F 72% 29.81 in 10.0 mi SE 21.9 mph 31.1 mph N/A   Clear
5:53 AM 26.1 °F 13.1 °F 18.0 °F 71% 29.78 in 10.0 mi SSE 17.3 mph 27.6 mph N/A   Clear
6:53 AM 27.0 °F 13.2 °F 19.0 °F 72% 29.76 in 10.0 mi SSE 20.7 mph 28.8 mph N/A   Clear
7:53 AM 30.0 °F 17.2 °F 21.0 °F 69% 29.74 in 10.0 mi SSE 20.7 mph - N/A   Clear
8:53 AM 36.0 °F 25.0 °F 24.1 °F 62% 29.75 in 10.0 mi South 20.7 mph 27.6 mph N/A   Clear
9:53 AM 41.0 °F 31.6 °F 27.0 °F 57% 29.75 in 10.0 mi SSW 20.7 mph 33.4 mph N/A   Clear
10:53 AM 42.1 °F 32.3 °F 28.9 °F 60% 29.77 in 10.0 mi WSW 24.2 mph 28.8 mph N/A   Clear
11:53 AM 46.0 °F 37.2 °F 30.9 °F 56% 29.77 in 10.0 mi SW 26.5 mph 36.8 mph N/A   Clear
12:53 PM 43.0 °F 32.0 °F 27.0 °F 53% 29.80 in 10.0 mi WSW 33.4 mph 42.6 mph N/A   Partly Cloudy
1:53 PM 43.0 °F 31.8 °F 26.1 °F 51% 29.82 in 10.0 mi WSW 34.5 mph 52.9 mph N/A   Clear
2:53 PM 41.0 °F 30.5 °F 24.1 °F 51% 29.85 in 10.0 mi West 26.5 mph 38.0 mph N/A   Clear
3:53 PM 37.9 °F 25.5 °F 23.0 °F 55% 29.90 in 10.0 mi West 31.1 mph 40.3 mph N/A   Clear
4:53 PM 35.1 °F 24.1 °F 23.0 °F 61% 29.94 in 10.0 mi West 19.6 mph 35.7 mph N/A   Partly Cloudy
5:53 PM 30.9 °F 17.5 °F 19.0 °F 61% 29.99 in 10.0 mi West 24.2 mph 38.0 mph N/A   Clear
6:53 PM 30.0 °F 16.6 °F 18.0 °F 61% 30.03 in 10.0 mi West 23.0 mph 28.8 mph N/A   Clear
7:53 PM 28.0 °F 15.7 °F 18.0 °F 66% 30.05 in 10.0 mi West 17.3 mph - N/A   Clear
8:53 PM 27.0 °F 12.5 °F 17.1 °F 66% 30.06 in 10.0 mi West 23.0 mph 31.1 mph N/A   Clear
9:53 PM 26.1 °F 11.0 °F 16.0 °F 66% 30.09 in 10.0 mi West 24.2 mph 28.8 mph N/A   Clear
10:53 PM 24.1 °F 9.4 °F 16.0 °F 71% 30.12 in 10.0 mi West 20.7 mph 29.9 mph N/A   Clear
11:53 PM 23.0 °F 8.7 °F 16.0 °F 74% 30.13 in 10.0 mi West 18.4 mph 25.3 mph N/A   Clear